Year,Month,Day,Hour,Minute,Value (Times are PST for temperature in C)
2013,04,26,00,00,8.70
2013,04,26,00,01,8.70
2013,04,26,00,02,8.70
2013,04,26,00,03,8.60
2013,04,26,00,04,8.60
2013,04,26,00,05,8.60
2013,04,26,00,06,8.60
2013,04,26,00,07,8.60
2013,04,26,00,08,8.50
2013,04,26,00,09,8.50
2013,04,26,00,10,8.50
2013,04,26,00,11,8.50
2013,04,26,00,12,8.50
2013,04,26,00,13,8.50
2013,04,26,00,14,8.50
2013,04,26,00,15,8.50
2013,04,26,00,16,8.50
2013,04,26,00,17,8.40
2013,04,26,00,18,8.40
2013,04,26,00,19,8.40
2013,04,26,00,20,8.50
2013,04,26,00,21,8.50
2013,04,26,00,22,8.50
2013,04,26,00,23,8.50
2013,04,26,00,24,8.50
2013,04,26,00,25,8.50
2013,04,26,00,26,8.60
2013,04,26,00,27,8.60
2013,04,26,00,28,8.60
2013,04,26,00,29,8.60
2013,04,26,00,30,8.60
2013,04,26,00,31,8.60
2013,04,26,00,32,8.60
2013,04,26,00,33,8.60
2013,04,26,00,34,8.60
2013,04,26,00,35,8.60
2013,04,26,00,36,8.60
2013,04,26,00,37,8.60
2013,04,26,00,38,8.60
2013,04,26,00,39,8.60
2013,04,26,00,40,8.60
2013,04,26,00,41,8.60
2013,04,26,00,42,8.60
2013,04,26,00,43,8.50
2013,04,26,00,44,8.50
2013,04,26,00,45,8.50
2013,04,26,00,46,8.50
2013,04,26,00,47,8.40
2013,04,26,00,48,8.40
2013,04,26,00,49,8.30
2013,04,26,00,50,8.30
2013,04,26,00,51,8.30
2013,04,26,00,52,8.30
2013,04,26,00,53,8.30
2013,04,26,00,54,8.30
2013,04,26,00,55,8.20
2013,04,26,00,56,8.20
2013,04,26,00,57,8.20
2013,04,26,00,58,8.20
2013,04,26,00,59,8.20
2013,04,26,01,00,8.10
2013,04,26,01,01,8.10
2013,04,26,01,02,8.10
2013,04,26,01,03,8.10
2013,04,26,01,04,8.10
2013,04,26,01,05,8.00
2013,04,26,01,06,8.00
2013,04,26,01,07,8.00
2013,04,26,01,08,8.00
2013,04,26,01,09,8.00
2013,04,26,01,10,8.00
2013,04,26,01,11,7.90
2013,04,26,01,12,7.90
2013,04,26,01,13,7.90
2013,04,26,01,14,7.80
2013,04,26,01,15,7.80
2013,04,26,01,16,7.90
2013,04,26,01,17,7.90
2013,04,26,01,18,7.90
2013,04,26,01,19,7.90
2013,04,26,01,20,7.90
2013,04,26,01,21,7.90
2013,04,26,01,22,7.90
2013,04,26,01,23,7.90
2013,04,26,01,24,7.90
2013,04,26,01,25,7.90
2013,04,26,01,26,7.90
2013,04,26,01,27,7.90
2013,04,26,01,28,7.90
2013,04,26,01,29,7.80
2013,04,26,01,30,7.80
2013,04,26,01,31,7.80
2013,04,26,01,32,7.80
2013,04,26,01,33,7.70
2013,04,26,01,34,7.70
2013,04,26,01,35,7.70
2013,04,26,01,36,7.70
2013,04,26,01,37,7.60
2013,04,26,01,38,7.60
2013,04,26,01,39,7.60
2013,04,26,01,40,7.60
2013,04,26,01,41,7.60
2013,04,26,01,42,7.60
2013,04,26,01,43,7.60
2013,04,26,01,44,7.60
2013,04,26,01,45,7.60
2013,04,26,01,46,7.60
2013,04,26,01,47,7.60
2013,04,26,01,48,7.50
2013,04,26,01,49,7.50
2013,04,26,01,50,7.40
2013,04,26,01,51,7.40
2013,04,26,01,52,7.30
2013,04,26,01,53,7.30
2013,04,26,01,54,7.20
2013,04,26,01,55,7.20
2013,04,26,01,56,7.20
2013,04,26,01,57,7.20
2013,04,26,01,58,7.20
2013,04,26,01,59,7.10
2013,04,26,02,00,7.10
2013,04,26,02,01,7.10
2013,04,26,02,02,7.10
2013,04,26,02,03,7.10
2013,04,26,02,04,7.10
2013,04,26,02,05,7.10
2013,04,26,02,06,7.10
2013,04,26,02,07,7.10
2013,04,26,02,08,7.10
2013,04,26,02,09,7.10
2013,04,26,02,10,7.00
2013,04,26,02,11,7.00
2013,04,26,02,12,7.00
2013,04,26,02,13,6.90
2013,04,26,02,14,6.90
2013,04,26,02,15,6.90
2013,04,26,02,16,6.90
2013,04,26,02,17,6.90
2013,04,26,02,18,6.90
2013,04,26,02,19,6.90
2013,04,26,02,20,6.80
2013,04,26,02,21,6.80
2013,04,26,02,22,6.80
2013,04,26,02,23,6.80
2013,04,26,02,24,6.80
2013,04,26,02,25,6.80
2013,04,26,02,26,6.80
2013,04,26,02,27,6.80
2013,04,26,02,28,6.80
2013,04,26,02,29,6.80
2013,04,26,02,30,6.80
2013,04,26,02,31,6.80
2013,04,26,02,32,6.80
2013,04,26,02,33,6.80
2013,04,26,02,34,6.80
2013,04,26,02,35,6.80
2013,04,26,02,36,6.80
2013,04,26,02,37,6.80
2013,04,26,02,38,6.80
2013,04,26,02,39,6.80
2013,04,26,02,40,6.80
2013,04,26,02,41,6.80
2013,04,26,02,42,6.80
2013,04,26,02,43,6.80
2013,04,26,02,44,6.80
2013,04,26,02,45,6.80
2013,04,26,02,46,6.80
2013,04,26,02,47,6.80
2013,04,26,02,48,6.80
2013,04,26,02,49,6.80
2013,04,26,02,50,6.80
2013,04,26,02,51,6.80
2013,04,26,02,52,6.80
2013,04,26,02,53,6.80
2013,04,26,02,54,6.80
2013,04,26,02,55,6.80
2013,04,26,02,56,6.80
2013,04,26,02,57,6.80
2013,04,26,02,58,6.80
2013,04,26,02,59,6.80
2013,04,26,03,00,6.80
2013,04,26,03,01,6.90
2013,04,26,03,02,6.90
2013,04,26,03,03,6.90
2013,04,26,03,04,6.90
2013,04,26,03,05,6.90
2013,04,26,03,06,6.90
2013,04,26,03,07,6.90
2013,04,26,03,08,7.00
2013,04,26,03,09,6.90
2013,04,26,03,10,6.90
2013,04,26,03,11,6.90
2013,04,26,03,12,6.90
2013,04,26,03,13,6.90
2013,04,26,03,14,6.90
2013,04,26,03,15,6.90
2013,04,26,03,16,6.80
2013,04,26,03,17,6.80
2013,04,26,03,18,6.70
2013,04,26,03,19,6.70
2013,04,26,03,20,6.60
2013,04,26,03,21,6.60
2013,04,26,03,22,6.60
2013,04,26,03,23,6.60
2013,04,26,03,24,6.50
2013,04,26,03,25,6.50
2013,04,26,03,26,6.60
2013,04,26,03,27,6.60
2013,04,26,03,28,6.60
2013,04,26,03,29,6.70
2013,04,26,03,30,6.70
2013,04,26,03,31,6.80
2013,04,26,03,32,6.80
2013,04,26,03,33,6.80
2013,04,26,03,34,6.80
2013,04,26,03,35,6.80
2013,04,26,03,36,6.80
2013,04,26,03,37,6.80
2013,04,26,03,38,6.80
2013,04,26,03,39,6.80
2013,04,26,03,40,6.80
2013,04,26,03,41,6.70
2013,04,26,03,42,6.70
2013,04,26,03,43,6.70
2013,04,26,03,44,6.70
2013,04,26,03,45,6.60
2013,04,26,03,46,6.60
2013,04,26,03,47,6.50
2013,04,26,03,48,6.40
2013,04,26,03,49,6.40
2013,04,26,03,50,6.30
2013,04,26,03,51,6.20
2013,04,26,03,52,6.20
2013,04,26,03,53,6.20
2013,04,26,03,54,6.10
2013,04,26,03,55,6.10
2013,04,26,03,56,6.10
2013,04,26,03,57,6.10
2013,04,26,03,58,6.10
2013,04,26,03,59,6.10
2013,04,26,04,00,6.10
2013,04,26,04,01,6.10
2013,04,26,04,02,6.10
2013,04,26,04,03,6.10
2013,04,26,04,04,6.10
2013,04,26,04,05,6.10
2013,04,26,04,06,6.10
2013,04,26,04,07,6.00
2013,04,26,04,08,6.00
2013,04,26,04,09,5.90
2013,04,26,04,10,5.90
2013,04,26,04,11,5.80
2013,04,26,04,12,5.80
2013,04,26,04,13,5.70
2013,04,26,04,14,5.70
2013,04,26,04,15,5.70
2013,04,26,04,16,5.80
2013,04,26,04,17,5.80
2013,04,26,04,18,5.80
2013,04,26,04,19,5.80
2013,04,26,04,20,5.90
2013,04,26,04,21,5.90
2013,04,26,04,22,5.90
2013,04,26,04,23,5.80
2013,04,26,04,24,5.80
2013,04,26,04,25,5.80
2013,04,26,04,26,5.70
2013,04,26,04,27,5.70
2013,04,26,04,28,5.60
2013,04,26,04,29,5.60
2013,04,26,04,30,5.60
2013,04,26,04,31,5.50
2013,04,26,04,32,5.50
2013,04,26,04,33,5.50
2013,04,26,04,34,5.50
2013,04,26,04,35,5.50
2013,04,26,04,36,5.50
2013,04,26,04,37,5.50
2013,04,26,04,38,5.50
2013,04,26,04,39,5.40
2013,04,26,04,40,5.40
2013,04,26,04,41,5.40
2013,04,26,04,42,5.40
2013,04,26,04,43,5.40
2013,04,26,04,44,5.40
2013,04,26,04,45,5.40
2013,04,26,04,46,5.40
2013,04,26,04,47,5.40
2013,04,26,04,48,5.40
2013,04,26,04,49,5.50
2013,04,26,04,50,5.50
2013,04,26,04,51,5.60
2013,04,26,04,52,5.60
2013,04,26,04,53,5.60
2013,04,26,04,54,5.60
2013,04,26,04,55,5.60
2013,04,26,04,56,5.60
2013,04,26,04,57,5.60
2013,04,26,04,58,5.60
2013,04,26,04,59,5.60
2013,04,26,05,00,5.60
2013,04,26,05,01,5.60
2013,04,26,05,02,5.60
2013,04,26,05,03,5.60
2013,04,26,05,04,5.70
2013,04,26,05,05,5.70
2013,04,26,05,06,5.70
2013,04,26,05,07,5.70
2013,04,26,05,08,5.70
2013,04,26,05,09,5.70
2013,04,26,05,10,5.70
2013,04,26,05,11,5.70
2013,04,26,05,12,5.70
2013,04,26,05,13,5.70
2013,04,26,05,14,5.70
2013,04,26,05,15,5.70
2013,04,26,05,16,5.70
2013,04,26,05,17,5.70
2013,04,26,05,18,5.70
2013,04,26,05,19,5.60
2013,04,26,05,20,5.60
2013,04,26,05,21,5.60
2013,04,26,05,22,5.50
2013,04,26,05,23,5.50
2013,04,26,05,24,5.40
2013,04,26,05,25,5.40
2013,04,26,05,26,5.40
2013,04,26,05,27,5.30
2013,04,26,05,28,5.30
2013,04,26,05,29,5.30
2013,04,26,05,30,5.20
2013,04,26,05,31,5.20
2013,04,26,05,32,5.20
2013,04,26,05,33,5.20
2013,04,26,05,34,5.20
2013,04,26,05,35,5.20
2013,04,26,05,36,5.20
2013,04,26,05,37,5.20
2013,04,26,05,38,5.20
2013,04,26,05,39,5.20
2013,04,26,05,40,5.20
2013,04,26,05,41,5.20
2013,04,26,05,42,5.20
2013,04,26,05,43,5.20
2013,04,26,05,44,5.20
2013,04,26,05,45,5.20
2013,04,26,05,46,5.30
2013,04,26,05,47,5.30
2013,04,26,05,48,5.30
2013,04,26,05,49,5.30
2013,04,26,05,50,5.30
2013,04,26,05,51,5.30
2013,04,26,05,52,5.30
2013,04,26,05,53,5.30
2013,04,26,05,54,5.20
2013,04,26,05,55,5.20
2013,04,26,05,56,5.20
2013,04,26,05,57,5.20
2013,04,26,05,58,5.20
2013,04,26,05,59,5.20
2013,04,26,06,00,5.20
2013,04,26,06,01,5.10
2013,04,26,06,02,5.10
2013,04,26,06,03,5.10
2013,04,26,06,04,5.10
2013,04,26,06,05,5.10
2013,04,26,06,06,5.10
2013,04,26,06,07,5.10
2013,04,26,06,08,5.10
2013,04,26,06,09,5.00
2013,04,26,06,10,5.00
2013,04,26,06,11,4.90
2013,04,26,06,12,4.90
2013,04,26,06,13,4.90
2013,04,26,06,14,4.90
2013,04,26,06,15,4.90
2013,04,26,06,16,4.80
2013,04,26,06,17,4.80
2013,04,26,06,18,4.80
2013,04,26,06,19,4.80
2013,04,26,06,20,4.80
2013,04,26,06,21,4.80
2013,04,26,06,22,4.80
2013,04,26,06,23,4.80
2013,04,26,06,24,4.80
2013,04,26,06,25,4.80
2013,04,26,06,26,4.80
2013,04,26,06,27,4.90
2013,04,26,06,28,4.90
2013,04,26,06,29,4.90
2013,04,26,06,30,5.00
2013,04,26,06,31,5.00
2013,04,26,06,32,5.10
2013,04,26,06,33,5.10
2013,04,26,06,34,5.20
2013,04,26,06,35,5.30
2013,04,26,06,36,5.30
2013,04,26,06,37,5.30
2013,04,26,06,38,5.40
2013,04,26,06,39,5.40
2013,04,26,06,40,5.40
2013,04,26,06,41,5.40
2013,04,26,06,42,5.40
2013,04,26,06,43,5.40
2013,04,26,06,44,5.30
2013,04,26,06,45,5.30
2013,04,26,06,46,5.30
2013,04,26,06,47,5.30
2013,04,26,06,48,5.30
2013,04,26,06,49,5.30
2013,04,26,06,50,5.20
2013,04,26,06,51,5.20
2013,04,26,06,52,5.20
2013,04,26,06,53,5.20
2013,04,26,06,54,5.20
2013,04,26,06,55,5.20
2013,04,26,06,56,5.30
2013,04,26,06,57,5.30
2013,04,26,06,58,5.30
2013,04,26,06,59,5.30
2013,04,26,07,00,5.40
2013,04,26,07,01,5.40
2013,04,26,07,02,5.50
2013,04,26,07,03,5.50
2013,04,26,07,04,5.60
2013,04,26,07,05,5.60
2013,04,26,07,06,5.70
2013,04,26,07,07,5.70
2013,04,26,07,08,5.70
2013,04,26,07,09,5.70
2013,04,26,07,10,5.70
2013,04,26,07,11,5.80
2013,04,26,07,12,5.80
2013,04,26,07,13,5.90
2013,04,26,07,14,5.90
2013,04,26,07,15,6.00
2013,04,26,07,16,6.00
2013,04,26,07,17,6.10
2013,04,26,07,18,6.10
2013,04,26,07,19,6.20
2013,04,26,07,20,6.20
2013,04,26,07,21,6.30
2013,04,26,07,22,6.30
2013,04,26,07,23,6.40
2013,04,26,07,24,6.50
2013,04,26,07,25,6.50
2013,04,26,07,26,6.60
2013,04,26,07,27,6.70
2013,04,26,07,28,6.70
2013,04,26,07,29,6.80
2013,04,26,07,30,6.90
2013,04,26,07,31,6.90
2013,04,26,07,32,7.00
2013,04,26,07,33,7.10
2013,04,26,07,34,7.20
2013,04,26,07,35,7.30
2013,04,26,07,36,7.40
2013,04,26,07,37,7.40
2013,04,26,07,38,7.50
2013,04,26,07,39,7.60
2013,04,26,07,40,7.70
2013,04,26,07,41,7.80
2013,04,26,07,42,7.90
2013,04,26,07,43,8.10
2013,04,26,07,44,8.20
2013,04,26,07,45,8.30
2013,04,26,07,46,8.50
2013,04,26,07,47,8.60
2013,04,26,07,48,8.80
2013,04,26,07,49,8.90
2013,04,26,07,50,9.00
2013,04,26,07,51,9.10
2013,04,26,07,52,9.20
2013,04,26,07,53,9.20
2013,04,26,07,54,9.30
2013,04,26,07,55,9.30
2013,04,26,07,56,9.40
2013,04,26,07,57,9.40
2013,04,26,07,58,9.40
2013,04,26,07,59,9.50
2013,04,26,08,00,9.50
2013,04,26,08,01,9.60
2013,04,26,08,02,9.60
2013,04,26,08,03,9.60
2013,04,26,08,04,9.60
2013,04,26,08,05,9.60
2013,04,26,08,06,9.60
2013,04,26,08,07,9.50
2013,04,26,08,08,9.50
2013,04,26,08,09,9.60
2013,04,26,08,10,9.60
2013,04,26,08,11,9.50
2013,04,26,08,12,9.50
2013,04,26,08,13,9.60
2013,04,26,08,14,9.60
2013,04,26,08,15,9.70
2013,04,26,08,16,9.70
2013,04,26,08,17,9.80
2013,04,26,08,18,9.90
2013,04,26,08,19,9.90
2013,04,26,08,20,9.90
2013,04,26,08,21,9.90
2013,04,26,08,22,9.90
2013,04,26,08,23,9.90
2013,04,26,08,24,9.90
2013,04,26,08,25,9.90
2013,04,26,08,26,9.90
2013,04,26,08,27,9.90
2013,04,26,08,28,9.90
2013,04,26,08,29,9.90
2013,04,26,08,30,9.80
2013,04,26,08,31,9.80
2013,04,26,08,32,9.80
2013,04,26,08,33,9.80
2013,04,26,08,34,9.80
2013,04,26,08,35,9.80
2013,04,26,08,36,9.80
2013,04,26,08,37,9.90
2013,04,26,08,38,10.00
2013,04,26,08,39,10.00
2013,04,26,08,40,10.10
2013,04,26,08,41,10.10
2013,04,26,08,42,10.20
2013,04,26,08,43,10.20
2013,04,26,08,44,10.20
2013,04,26,08,45,10.30
2013,04,26,08,46,10.30
2013,04,26,08,47,10.30
2013,04,26,08,48,10.30
2013,04,26,08,49,10.40
2013,04,26,08,50,10.40
2013,04,26,08,51,10.40
2013,04,26,08,52,10.40
2013,04,26,08,53,10.40
2013,04,26,08,54,10.40
2013,04,26,08,55,10.40
2013,04,26,08,56,10.40
2013,04,26,08,57,10.40
2013,04,26,08,58,10.50
2013,04,26,08,59,10.50
2013,04,26,09,00,10.60
2013,04,26,09,01,10.60
2013,04,26,09,02,10.70
2013,04,26,09,03,10.80
2013,04,26,09,04,10.90
2013,04,26,09,05,10.90
2013,04,26,09,06,10.90
2013,04,26,09,07,10.80
2013,04,26,09,08,10.70
2013,04,26,09,09,10.70
2013,04,26,09,10,10.70
2013,04,26,09,11,10.70
2013,04,26,09,12,10.70
2013,04,26,09,13,10.70
2013,04,26,09,14,10.70
2013,04,26,09,15,10.80
2013,04,26,09,16,10.80
2013,04,26,09,17,10.90
2013,04,26,09,18,11.00
2013,04,26,09,19,11.00
2013,04,26,09,20,11.00
2013,04,26,09,21,11.00
2013,04,26,09,22,11.00
2013,04,26,09,23,10.90
2013,04,26,09,24,10.90
2013,04,26,09,25,10.90
2013,04,26,09,26,10.90
2013,04,26,09,27,10.90
2013,04,26,09,28,11.00
2013,04,26,09,29,11.00
2013,04,26,09,30,11.10
2013,04,26,09,31,11.10
2013,04,26,09,32,11.10
2013,04,26,09,33,11.10
2013,04,26,09,34,11.20
2013,04,26,09,35,11.20
2013,04,26,09,36,11.20
2013,04,26,09,37,11.10
2013,04,26,09,38,11.10
2013,04,26,09,39,11.10
2013,04,26,09,40,11.00
2013,04,26,09,41,11.00
2013,04,26,09,42,11.00
2013,04,26,09,43,11.00
2013,04,26,09,44,11.00
2013,04,26,09,45,11.00
2013,04,26,09,46,11.00
2013,04,26,09,47,11.00
2013,04,26,09,48,11.00
2013,04,26,09,49,11.10
2013,04,26,09,50,11.10
2013,04,26,09,51,11.20
2013,04,26,09,52,11.30
2013,04,26,09,53,11.40
2013,04,26,09,54,11.40
2013,04,26,09,55,11.50
2013,04,26,09,56,11.60
2013,04,26,09,57,11.60
2013,04,26,09,58,11.70
2013,04,26,09,59,11.90
2013,04,26,10,00,12.00
2013,04,26,10,01,12.10
2013,04,26,10,02,12.20
2013,04,26,10,03,12.20
2013,04,26,10,04,12.30
2013,04,26,10,05,12.40
2013,04,26,10,06,12.50
2013,04,26,10,07,12.60
2013,04,26,10,08,12.70
2013,04,26,10,09,12.80
2013,04,26,10,10,12.80
2013,04,26,10,11,12.90
2013,04,26,10,12,12.80
2013,04,26,10,13,12.80
2013,04,26,10,14,12.70
2013,04,26,10,15,12.70
2013,04,26,10,16,12.80
2013,04,26,10,17,12.80
2013,04,26,10,18,12.80
2013,04,26,10,19,12.70
2013,04,26,10,20,12.60
2013,04,26,10,21,12.60
2013,04,26,10,22,12.50
2013,04,26,10,23,12.40
2013,04,26,10,24,12.40
2013,04,26,10,25,12.30
2013,04,26,10,26,12.20
2013,04,26,10,27,12.20
2013,04,26,10,28,12.10
2013,04,26,10,29,12.10
2013,04,26,10,30,12.10
2013,04,26,10,31,12.10
2013,04,26,10,32,12.20
2013,04,26,10,33,12.20
2013,04,26,10,34,12.20
2013,04,26,10,35,12.30
2013,04,26,10,36,12.30
2013,04,26,10,37,12.30
2013,04,26,10,38,12.30
2013,04,26,10,39,12.30
2013,04,26,10,40,12.40
2013,04,26,10,41,12.50
2013,04,26,10,42,12.60
2013,04,26,10,43,12.60
2013,04,26,10,44,12.70
2013,04,26,10,45,12.70
2013,04,26,10,46,12.70
2013,04,26,10,47,12.70
2013,04,26,10,48,12.80
2013,04,26,10,49,12.70
2013,04,26,10,50,12.70
2013,04,26,10,51,12.60
2013,04,26,10,52,12.60
2013,04,26,10,53,12.60
2013,04,26,10,54,12.60
2013,04,26,10,55,12.60
2013,04,26,10,56,12.50
2013,04,26,10,57,12.50
2013,04,26,10,58,12.40
2013,04,26,10,59,12.30
2013,04,26,11,00,12.30
2013,04,26,11,01,12.20
2013,04,26,11,02,12.10
2013,04,26,11,03,12.10
2013,04,26,11,04,12.10
2013,04,26,11,05,12.10
2013,04,26,11,06,12.00
2013,04,26,11,07,12.00
2013,04,26,11,08,12.10
2013,04,26,11,09,12.10
2013,04,26,11,10,12.20
2013,04,26,11,11,12.20
2013,04,26,11,12,12.20
2013,04,26,11,13,12.10
2013,04,26,11,14,12.00
2013,04,26,11,15,11.90
2013,04,26,11,16,11.90
2013,04,26,11,17,11.90
2013,04,26,11,18,11.80
2013,04,26,11,19,11.80
2013,04,26,11,20,11.80
2013,04,26,11,21,11.80
2013,04,26,11,22,11.80
2013,04,26,11,23,11.80
2013,04,26,11,24,11.70
2013,04,26,11,25,11.60
2013,04,26,11,26,11.50
2013,04,26,11,27,11.40
2013,04,26,11,28,11.40
2013,04,26,11,29,11.40
2013,04,26,11,30,11.30
2013,04,26,11,31,11.30
2013,04,26,11,32,11.30
2013,04,26,11,33,11.20
2013,04,26,11,34,11.30
2013,04,26,11,35,11.30
2013,04,26,11,36,11.30
2013,04,26,11,37,11.30
2013,04,26,11,38,11.30
2013,04,26,11,39,11.30
2013,04,26,11,40,11.30
2013,04,26,11,41,11.30
2013,04,26,11,42,11.30
2013,04,26,11,43,11.30
2013,04,26,11,44,11.30
2013,04,26,11,45,11.40
2013,04,26,11,46,11.40
2013,04,26,11,47,11.40
2013,04,26,11,48,11.50
2013,04,26,11,49,11.40
2013,04,26,11,50,11.40
2013,04,26,11,51,11.40
2013,04,26,11,52,11.40
2013,04,26,11,53,11.40
2013,04,26,11,54,11.40
2013,04,26,11,55,11.30
2013,04,26,11,56,11.30
2013,04,26,11,57,11.20
2013,04,26,11,58,11.20
2013,04,26,11,59,11.20
2013,04,26,12,00,11.10
2013,04,26,12,01,11.10
2013,04,26,12,02,11.10
2013,04,26,12,03,11.10
2013,04,26,12,04,11.20
2013,04,26,12,05,11.20
2013,04,26,12,06,11.10
2013,04,26,12,07,11.10
2013,04,26,12,08,11.10
2013,04,26,12,09,11.10
2013,04,26,12,10,11.10
2013,04,26,12,11,11.20
2013,04,26,12,12,11.20
2013,04,26,12,13,11.20
2013,04,26,12,14,11.30
2013,04,26,12,15,11.30
2013,04,26,12,16,11.30
2013,04,26,12,17,11.30
2013,04,26,12,18,11.30
2013,04,26,12,19,11.30
2013,04,26,12,20,11.30
2013,04,26,12,21,11.30
2013,04,26,12,22,11.30
2013,04,26,12,23,11.20
2013,04,26,12,24,11.20
2013,04,26,12,25,11.30
2013,04,26,12,26,11.30
2013,04,26,12,27,11.40
2013,04,26,12,28,11.40
2013,04,26,12,29,11.30
2013,04,26,12,30,11.40
2013,04,26,12,31,11.40
2013,04,26,12,32,11.50
2013,04,26,12,33,11.50
2013,04,26,12,34,11.60
2013,04,26,12,35,11.60
2013,04,26,12,36,11.60
2013,04,26,12,37,11.60
2013,04,26,12,38,11.60
2013,04,26,12,39,11.60
2013,04,26,12,40,11.70
2013,04,26,12,41,11.70
2013,04,26,12,42,11.70
2013,04,26,12,43,11.80
2013,04,26,12,44,11.80
2013,04,26,12,45,11.90
2013,04,26,12,46,12.00
2013,04,26,12,47,12.00
2013,04,26,12,48,12.10
2013,04,26,12,49,12.10
2013,04,26,12,50,12.10
2013,04,26,12,51,12.10
2013,04,26,12,52,12.00
2013,04,26,12,53,11.90
2013,04,26,12,54,11.90
2013,04,26,12,55,11.80
2013,04,26,12,56,11.70
2013,04,26,12,57,11.50
2013,04,26,12,58,11.40
2013,04,26,12,59,11.30
2013,04,26,13,00,11.20
2013,04,26,13,01,11.10
2013,04,26,13,02,11.10
2013,04,26,13,03,11.00
2013,04,26,13,04,10.90
2013,04,26,13,05,10.80
2013,04,26,13,06,10.70
2013,04,26,13,07,10.70
2013,04,26,13,08,10.70
2013,04,26,13,09,10.70
2013,04,26,13,10,10.70
2013,04,26,13,11,10.60
2013,04,26,13,12,10.60
2013,04,26,13,13,10.60
2013,04,26,13,14,10.60
2013,04,26,13,15,10.60
2013,04,26,13,16,10.70
2013,04,26,13,17,10.70
2013,04,26,13,18,10.70
2013,04,26,13,19,10.70
2013,04,26,13,20,10.70
2013,04,26,13,21,10.70
2013,04,26,13,22,10.70
2013,04,26,13,23,10.70
2013,04,26,13,24,10.70
2013,04,26,13,25,10.70
2013,04,26,13,26,10.70
2013,04,26,13,27,10.80
2013,04,26,13,28,10.80
2013,04,26,13,29,10.80
2013,04,26,13,30,10.80
2013,04,26,13,31,10.80
2013,04,26,13,32,10.90
2013,04,26,13,33,10.90
2013,04,26,13,34,11.00
2013,04,26,13,35,11.00
2013,04,26,13,36,11.10
2013,04,26,13,37,11.20
2013,04,26,13,38,11.20
2013,04,26,13,39,11.30
2013,04,26,13,40,11.30
2013,04,26,13,41,11.30
2013,04,26,13,42,11.30
2013,04,26,13,43,11.30
2013,04,26,13,44,11.20
2013,04,26,13,45,11.30
2013,04,26,13,46,11.30
2013,04,26,13,47,11.40
2013,04,26,13,48,11.50
2013,04,26,13,49,11.60
2013,04,26,13,50,11.60
2013,04,26,13,51,11.60
2013,04,26,13,52,11.60
2013,04,26,13,53,11.60
2013,04,26,13,54,11.60
2013,04,26,13,55,11.70
2013,04,26,13,56,11.80
2013,04,26,13,57,11.90
2013,04,26,13,58,12.00
2013,04,26,13,59,12.10
2013,04,26,14,00,12.30
2013,04,26,14,01,12.50
2013,04,26,14,02,12.60
2013,04,26,14,03,12.70
2013,04,26,14,04,12.90
2013,04,26,14,05,13.00
2013,04,26,14,06,13.10
2013,04,26,14,07,13.10
2013,04,26,14,08,13.20
2013,04,26,14,09,13.30
2013,04,26,14,10,13.40
2013,04,26,14,11,13.40
2013,04,26,14,12,13.50
2013,04,26,14,13,13.50
2013,04,26,14,14,13.50
2013,04,26,14,15,13.50
2013,04,26,14,16,13.40
2013,04,26,14,17,13.50
2013,04,26,14,18,13.40
2013,04,26,14,19,13.40
2013,04,26,14,20,13.40
2013,04,26,14,21,13.50
2013,04,26,14,22,13.50
2013,04,26,14,23,13.60
2013,04,26,14,24,13.60
2013,04,26,14,25,13.50
2013,04,26,14,26,13.40
2013,04,26,14,27,13.30
2013,04,26,14,28,13.20
2013,04,26,14,29,13.20
2013,04,26,14,30,13.20
2013,04,26,14,31,13.20
2013,04,26,14,32,13.30
2013,04,26,14,33,13.30
2013,04,26,14,34,13.40
2013,04,26,14,35,13.40
2013,04,26,14,36,13.50
2013,04,26,14,37,13.60
2013,04,26,14,38,13.60
2013,04,26,14,39,13.60
2013,04,26,14,40,13.70
2013,04,26,14,41,13.70
2013,04,26,14,42,13.70
2013,04,26,14,43,13.70
2013,04,26,14,44,13.80
2013,04,26,14,45,13.80
2013,04,26,14,46,13.80
2013,04,26,14,47,13.80
2013,04,26,14,48,13.80
2013,04,26,14,49,13.80
2013,04,26,14,50,13.80
2013,04,26,14,51,13.90
2013,04,26,14,52,14.00
2013,04,26,14,53,14.10
2013,04,26,14,54,14.20
2013,04,26,14,55,14.30
2013,04,26,14,56,14.40
2013,04,26,14,57,14.40
2013,04,26,14,58,14.50
2013,04,26,14,59,14.50
2013,04,26,15,00,14.60
2013,04,26,15,01,14.60
2013,04,26,15,02,14.60
2013,04,26,15,03,14.70
2013,04,26,15,04,14.70
2013,04,26,15,05,14.70
2013,04,26,15,06,14.70
2013,04,26,15,07,14.70
2013,04,26,15,08,14.80
2013,04,26,15,09,14.90
2013,04,26,15,10,15.00
2013,04,26,15,11,15.10
2013,04,26,15,12,15.10
2013,04,26,15,13,15.10
2013,04,26,15,14,15.10
2013,04,26,15,15,15.10
2013,04,26,15,16,15.10
2013,04,26,15,17,15.00
2013,04,26,15,18,15.00
2013,04,26,15,19,15.00
2013,04,26,15,20,15.00
2013,04,26,15,21,15.10
2013,04,26,15,22,15.20
2013,04,26,15,23,15.30
2013,04,26,15,24,15.30
2013,04,26,15,25,15.40
2013,04,26,15,26,15.40
2013,04,26,15,27,15.50
2013,04,26,15,28,15.60
2013,04,26,15,29,15.70
2013,04,26,15,30,15.70
2013,04,26,15,31,15.60
2013,04,26,15,32,15.50
2013,04,26,15,33,15.50
2013,04,26,15,34,15.40
2013,04,26,15,35,15.30
2013,04,26,15,36,15.20
2013,04,26,15,37,15.10
2013,04,26,15,38,15.00
2013,04,26,15,39,14.90
2013,04,26,15,40,14.90
2013,04,26,15,41,14.90
2013,04,26,15,42,14.90
2013,04,26,15,43,14.90
2013,04,26,15,44,14.90
2013,04,26,15,45,15.00
2013,04,26,15,46,15.00
2013,04,26,15,47,15.10
2013,04,26,15,48,15.10
2013,04,26,15,49,15.20
2013,04,26,15,50,15.30
2013,04,26,15,51,15.30
2013,04,26,15,52,15.30
2013,04,26,15,53,15.20
2013,04,26,15,54,15.10
2013,04,26,15,55,15.00
2013,04,26,15,56,14.90
2013,04,26,15,57,14.80
2013,04,26,15,58,14.70
2013,04,26,15,59,14.60
2013,04,26,16,00,14.60
2013,04,26,16,01,14.50
2013,04,26,16,02,14.40
2013,04,26,16,03,14.30
2013,04,26,16,04,14.30
2013,04,26,16,05,14.30
2013,04,26,16,06,14.30
2013,04,26,16,07,14.20
2013,04,26,16,08,14.20
2013,04,26,16,09,14.20
2013,04,26,16,10,14.20
2013,04,26,16,11,14.20
2013,04,26,16,12,14.20
2013,04,26,16,13,14.20
2013,04,26,16,14,14.20
2013,04,26,16,15,14.20
2013,04,26,16,16,14.20
2013,04,26,16,17,14.30
2013,04,26,16,18,14.30
2013,04,26,16,19,14.30
2013,04,26,16,20,14.30
2013,04,26,16,21,14.30
2013,04,26,16,22,14.30
2013,04,26,16,23,14.40
2013,04,26,16,24,14.40
2013,04,26,16,25,14.40
2013,04,26,16,26,14.40
2013,04,26,16,27,14.40
2013,04,26,16,28,14.40
2013,04,26,16,29,14.40
2013,04,26,16,30,14.40
2013,04,26,16,31,14.40
2013,04,26,16,32,14.40
2013,04,26,16,33,14.40
2013,04,26,16,34,14.40
2013,04,26,16,35,14.40
2013,04,26,16,36,14.50
2013,04,26,16,37,14.50
2013,04,26,16,38,14.60
2013,04,26,16,39,14.60
2013,04,26,16,40,14.70
2013,04,26,16,41,14.70
2013,04,26,16,42,14.80
2013,04,26,16,43,14.90
2013,04,26,16,44,15.00
2013,04,26,16,45,15.00
2013,04,26,16,46,15.10
2013,04,26,16,47,15.10
2013,04,26,16,48,15.10
2013,04,26,16,49,15.10
2013,04,26,16,50,15.10
2013,04,26,16,51,15.10
2013,04,26,16,52,15.10
2013,04,26,16,53,15.00
2013,04,26,16,54,14.90
2013,04,26,16,55,14.90
2013,04,26,16,56,14.80
2013,04,26,16,57,14.80
2013,04,26,16,58,14.80
2013,04,26,16,59,14.80
2013,04,26,17,00,14.90
2013,04,26,17,01,15.00
2013,04,26,17,02,15.30
2013,04,26,17,03,15.50
2013,04,26,17,04,15.90
2013,04,26,17,05,16.20
2013,04,26,17,06,16.60
2013,04,26,17,07,16.90
2013,04,26,17,08,17.20
2013,04,26,17,09,17.60
2013,04,26,17,10,17.90
2013,04,26,17,11,18.30
2013,04,26,17,12,18.50
2013,04,26,17,13,18.70
2013,04,26,17,14,18.90
2013,04,26,17,15,19.00
2013,04,26,17,16,19.20
2013,04,26,17,17,19.20
2013,04,26,17,18,19.30
2013,04,26,17,19,19.40
2013,04,26,17,20,19.40
2013,04,26,17,21,19.40
2013,04,26,17,22,19.50
2013,04,26,17,23,19.50
2013,04,26,17,24,19.50
2013,04,26,17,25,19.60
2013,04,26,17,26,19.60
2013,04,26,17,27,19.70
2013,04,26,17,28,19.70
2013,04,26,17,29,19.70
2013,04,26,17,30,19.80
2013,04,26,17,31,19.80
2013,04,26,17,32,19.80
2013,04,26,17,33,19.80
2013,04,26,17,34,19.80
2013,04,26,17,35,19.80
2013,04,26,17,36,19.80
2013,04,26,17,37,19.80
2013,04,26,17,38,19.80
2013,04,26,17,39,19.90
2013,04,26,17,40,19.90
2013,04,26,17,41,19.90